K4XP Weather Reports


time (UTC)temp
C
wind
direction
speed
KPH
gust
KPH
rain 1hr
cm
rain 24hr
cm
rain mn
cm
humidity
%
barometer
mb
20260509022016 16 188 0.0 0.0 0.00 0.00 0.00 74 1014.6
20260509021516 16 183 0.0 0.0 0.00 0.00 0.00 75 1014.7
20260509021032 16 182 0.0 0.0 0.00 0.00 0.00 75 1014.7
20260509020525 17 183 0.0 0.0 0.00 0.00 0.00 74 1014.6
20260509020020 17 182 0.0 0.0 0.00 0.00 0.00 74 1014.7
20260509015516 17 192 0.0 0.0 0.00 0.00 0.00 73 1014.7
20260509015012 17 207 0.0 0.0 0.00 0.00 0.00 72 1014.7
20260509014528 17 190 0.0 0.0 0.00 0.00 0.00 72 1014.5
20260509014028 17 191 0.0 0.0 0.00 0.00 0.00 72 1014.5
20260509013524 17 181 0.0 0.0 0.00 0.00 0.00 73 1014.6
20260509013020 17 167 0.0 0.0 0.00 0.00 0.00 72 1014.5
20260509012513 17 194 0.0 0.0 0.00 0.00 0.00 73 1014.3
20260509012029 17 189 0.0 0.0 0.00 0.00 0.00 73 1014.3
20260509011525 17 217 0.0 0.0 0.00 0.00 0.00 72 1014.3
20260509011021 17 217 0.0 0.0 0.00 0.00 0.00 71 1014.3
20260509010522 17 195 0.0 0.0 0.00 0.00 0.00 70 1014.1
20260509010019 17 196 0.0 0.0 0.00 0.00 0.00 71 1014.1
20260509005514 17 180 0.0 0.0 0.00 0.00 0.00 69 1014.1
20260509005030 17 194 0.0 0.0 0.00 0.00 0.00 69 1014.1
20260509004524 17 194 0.0 0.0 0.00 0.00 0.00 69 1014.3
20260509004019 17 195 0.0 0.0 0.00 0.00 0.00 68 1014.2
20260509003515 17 188 0.0 0.0 0.00 0.00 0.00 68 1014.1
20260509003015 18 195 0.0 0.0 0.00 0.00 0.00 68 1014.2
20260509002511 18 197 0.0 0.0 0.00 0.00 0.00 67 1014.1
20260509002027 18 221 0.0 0.0 0.00 0.00 0.00 67 1014.1
20260509001524 18 192 0.0 0.0 0.00 0.00 0.00 67 1014.0
20260509001020 18 190 0.0 0.0 0.00 0.00 0.00 66 1013.9
20260509000516 18 200 0.0 0.0 0.00 0.00 0.00 65 1013.9
20260509000013 18 184 0.0 0.0 0.00 0.00 0.00 65 1013.8
20260508235513 18 186 0.0 0.0 0.00 0.00 0.00 64 1013.8
20260508235029 18 191 0.0 0.0 0.00 0.00 0.00 64 1013.7
20260508234522 18 157 0.0 0.0 0.00 0.00 0.00 63 1013.8
20260508234018 18 196 0.0 0.0 0.00 0.00 0.00 64 1013.8
20260508233511 18 196 0.0 0.0 0.00 0.00 0.00 62 1013.9
20260508233027 18 180 0.0 0.0 0.00 0.00 0.00 62 1013.9
20260508232523 18 178 0.0 0.0 0.00 0.00 0.00 62 1013.9
20260508232019 19 167 0.0 1.6 0.00 0.00 0.00 61 1013.9
20260508231520 19 196 0.0 1.6 0.00 0.00 0.00 61 1013.8
20260508231017 19 178 0.0 0.0 0.00 0.00 0.00 60 1013.7
20260508230511 19 178 0.0 0.0 0.00 0.00 0.00 60 1013.7
20260508230028 19 186 0.0 0.0 0.00 0.00 0.00 60 1013.8
20260508225524 19 178 0.0 0.0 0.00 0.00 0.00 59 1013.8
20260508225020 19 178 0.0 0.0 0.00 0.00 0.00 59 1013.7
20260508224516 19 196 0.0 0.0 0.00 0.00 0.00 58 1013.8
20260508224014 19 195 0.0 0.0 0.00 0.00 0.00 58 1014.0
20260508223511 20 188 0.0 1.6 0.00 0.00 0.00 57 1014.0
20260508223027 20 201 0.0 1.6 0.00 0.00 0.00 57 1013.9
20260508222523 20 189 0.0 0.0 0.00 0.00 0.00 57 1013.9
20260508222015 20 178 0.0 0.0 0.00 0.00 0.00 57 1013.8
20260508221512 20 165 0.0 0.0 0.00 0.00 0.00 56 1013.7
20260508221027 20 198 0.0 0.0 0.00 0.00 0.00 57 1013.8
20260508220527 20 171 0.0 0.0 0.00 0.00 0.00 55 1013.7
20260508220025 20 167 0.0 1.6 0.00 0.00 0.00 55 1013.7
20260508215517 20 189 0.0 1.6 0.00 0.00 0.00 55 1013.7
20260508215030 20 188 0.0 0.0 0.00 0.00 0.00 54 1013.7
20260508214527 20 184 0.0 0.0 0.00 0.00 0.00 55 1013.8
20260508214023 20 226 0.0 0.0 0.00 0.00 0.00 55 1013.9
20260508213520 20 248 0.0 0.0 0.00 0.00 0.00 54 1013.9
20260508213020 20 159 0.0 0.0 0.00 0.00 0.00 54 1013.9
20260508212513 20 197 0.0 0.0 0.00 0.00 0.00 53 1013.9
20260508212029 20 187 0.0 0.0 0.00 0.00 0.00 54 1013.9
20260508211522 20 227 0.0 0.0 0.00 0.00 0.00 54 1013.9
20260508211016 20 189 0.0 1.6 0.00 0.00 0.00 53 1013.8
20260508210512 20 200 0.0 1.6 0.00 0.00 0.00 54 1013.7
20260508210030 20 171 0.0 0.0 0.00 0.00 0.00 53 1013.8
20260508205525 20 175 0.0 0.0 0.00 0.00 0.00 55 1013.8
20260508205025 20 186 0.0 0.0 0.00 0.00 0.00 53 1013.8
20260508204521 20 173 0.0 1.6 0.00 0.00 0.00 52 1013.8
20260508204017 20 246 0.0 1.6 0.00 0.00 0.00 53 1013.7
20260508203513 20 171 0.0 0.0 0.00 0.00 0.00 54 1013.9
20260508203030 20 190 0.0 17.7 0.00 0.00 0.00 53 1013.9
20260508202526 20 200 0.0 17.7 0.00 0.00 0.00 52 1014.1
20260508202022 21 174 8.0 19.3 0.00 0.00 0.00 51 1014.1
20260508201519 21 192 1.6 14.5 0.00 0.00 0.00 52 1014.2
20260508201015 21 200 4.8 14.5 0.00 0.00 0.00 51 1014.3
20260508200527 21 243 1.6 14.5 0.00 0.00 0.00 52 1014.3
20260508200026 21 174 0.0 12.9 0.00 0.00 0.00 51 1014.4
20260508195522 21 159 3.2 11.3 0.00 0.00 0.00 51 1014.4
20260508195015 21 180 0.0 0.0 0.00 0.00 0.00 51 1014.5
20260508194510 21 229 0.0 4.8 0.00 0.00 0.00 49 1014.6
20260508194030 21 198 0.0 4.8 0.00 0.00 0.00 51 1014.6
20260508193526 21 88 0.0 16.1 0.00 0.00 0.00 52 1014.7
20260508193022 20 208 1.6 19.3 0.00 0.00 0.00 50 1014.9
20260508192519 21 194 4.8 14.5 0.00 0.00 0.00 51 1015.0
20260508192013 20 174 0.0 0.0 0.00 0.00 0.00 52 1014.9
20260508191528 20 170 0.0 0.0 0.00 0.00 0.00 50 1015.0
20260508191025 20 167 0.0 0.0 0.00 0.00 0.00 52 1015.0
20260508190526 21 157 0.0 0.0 0.00 0.00 0.00 51 1015.1
20260508190022 20 177 0.0 0.0 0.00 0.00 0.00 53 1015.3
20260508185516 20 191 0.0 0.0 0.00 0.00 0.00 56 1015.3
20260508185012 20 198 0.0 0.0 0.00 0.00 0.00 54 1015.4
20260508184529 20 101 0.0 0.0 0.00 0.00 0.00 54 1015.6
20260508184025 20 229 0.0 0.0 0.00 0.00 0.00 55 1015.6
20260508183522 20 211 0.0 0.0 0.00 0.00 0.00 53 1015.8
20260508183024 20 102 0.0 0.0 0.00 0.00 0.00 54 1015.9
20260508182520 20 184 0.0 1.6 0.00 0.00 0.00 54 1015.9
20260508182017 20 124 0.0 1.6 0.00 0.00 0.00 54 1015.8
20260508181513 20 188 0.0 0.0 0.00 0.00 0.00 55 1016.1
20260508181029 20 206 0.0 0.0 0.00 0.00 0.00 54 1016.0
20260508180525 20 5 0.0 0.0 0.00 0.00 0.00 56 1016.1
20260508180020 20 215 0.0 0.0 0.00 0.00 0.00 53 1016.0
20260508175520 20 236 0.0 0.0 0.00 0.00 0.00 53 1016.2
20260508175013 19 242 0.0 0.0 0.00 0.00 0.00 55 1016.2
20260508174530 20 197 0.0 0.0 0.00 0.00 0.00 55 1016.2
20260508174023 20 206 0.0 0.0 0.00 0.00 0.00 56 1016.2
20260508173519 19 181 0.0 0.0 0.00 0.00 0.00 57 1016.5
20260508173015 19 58 0.0 0.0 0.00 0.00 0.00 59 1016.3
20260508172510 19 94 0.0 0.0 0.00 0.00 0.00 55 1016.4
20260508172010 20 104 0.0 0.0 0.00 0.00 0.00 57 1016.6
20260508171526 20 84 0.0 0.0 0.00 0.00 0.00 54 1016.8
20260508171023 20 153 0.0 1.6 0.00 0.00 0.00 55 1016.9
20260508170519 20 67 0.0 0.0 0.00 0.00 0.00 58 1016.8
20260508170016 19 297 0.0 0.0 0.00 0.00 0.00 55 1016.8
20260508165512 18 190 0.0 0.0 0.00 0.00 0.00 58 1016.9
20260508165028 18 221 0.0 0.0 0.00 0.00 0.00 54 1017.0
20260508164524 18 159 0.0 0.0 0.00 0.00 0.00 56 1017.1
20260508164024 18 88 0.0 0.0 0.00 0.00 0.00 56 1017.2
20260508163521 18 196 0.0 0.0 0.00 0.00 0.00 56 1017.3
20260508163017 19 184 0.0 0.0 0.00 0.00 0.00 55 1017.3
20260508162530 19 159 0.0 0.0 0.00 0.00 0.00 56 1017.4
20260508162027 19 120 0.0 0.0 0.00 0.00 0.00 58 1017.4
20260508161523 19 5 0.0 0.0 0.00 0.00 0.00 56 1017.3
20260508161016 19 205 0.0 0.0 0.00 0.00 0.00 55 1017.4
20260508160516 19 190 0.0 0.0 0.00 0.00 0.00 57 1017.7
20260508160012 19 204 0.0 0.0 0.00 0.00 0.00 55 1017.7
20260508155528 19 200 0.0 0.0 0.00 0.00 0.00 60 1017.7
20260508155024 18 158 0.0 0.0 0.00 0.00 0.00 55 1017.7
20260508154520 19 177 0.0 0.0 0.00 0.00 0.00 56 1018.0
20260508154016 18 17 0.0 0.0 0.00 0.00 0.00 59 1018.0
20260508153514 18 201 0.0 0.0 0.00 0.00 0.00 58 1018.0
20260508153015 18 198 0.0 11.3 0.00 0.00 0.00 58 1018.0
20260508152511 18 225 1.6 11.3 0.00 0.00 0.00 58 1018.0
20260508152028 18 61 0.0 12.9 0.00 0.00 0.00 60 1018.0
20260508151523 18 285 0.0 12.9 0.00 0.00 0.00 61 1018.0
20260508151019 18 194 1.6 8.0 0.00 0.00 0.00 57 1017.9
20260508150515 18 30 0.0 12.9 0.00 0.00 0.00 58 1017.9
20260508150012 18 40 3.2 12.9 0.00 0.00 0.00 59 1018.0
20260508145511 18 34 3.2 8.0 0.00 0.00 0.00 58 1017.9
20260508145027 18 186 1.6 8.0 0.00 0.00 0.00 57 1017.9
20260508144524 18 49 4.8 8.0 0.00 0.00 0.00 56 1017.8
20260508144016 18 316 0.0 11.3 0.00 0.00 0.00 59 1017.8
20260508143513 18 76 0.0 12.9 0.00 0.00 0.00 57 1017.9
20260508143031 18 107 4.8 12.9 0.00 0.00 0.00 57 1017.9
20260508142527 18 78 0.0 1.6 0.00 0.00 0.00 59 1018.0
20260508142025 17 59 0.0 4.8 0.00 0.00 0.00 59 1018.0
20260508141522 17 48 0.0 12.9 0.00 0.00 0.00 59 1018.1
20260508141019 17 69 1.6 12.9 0.00 0.00 0.00 59 1018.1
20260508140511 17 67 3.2 12.9 0.00 0.00 0.00 60 1018.1
20260508140027 17 84 0.0 1.6 0.00 0.00 0.00 61 1018.3
20260508135521 17 92 0.0 0.0 0.00 0.20 0.00 63 1018.3
20260508135011 17 61 0.0 0.0 0.00 0.20 0.00 64 1018.3
20260508134511 17 60 0.0 0.0 0.00 0.20 0.00 66 1018.4
20260508134028 16 59 0.0 0.0 0.00 0.20 0.00 65 1018.3
20260508133520 16 36 0.0 0.0 0.00 0.20 0.00 66 1018.3
20260508133015 16 100 0.0 0.0 0.00 0.20 0.00 69 1018.3
20260508132511 16 48 0.0 0.0 0.00 0.20 0.00 70 1018.2
20260508132026 15 46 0.0 0.0 0.00 0.20 0.00 69 1018.1
20260508131522 15 19 0.0 0.0 0.00 0.20 0.00 71 1018.0
20260508131016 15 69 0.0 0.0 0.00 0.20 0.00 74 1018.0
20260508130516 15 37 0.0 0.0 0.00 0.20 0.00 74 1017.9
20260508130014 14 54 0.0 0.0 0.00 0.20 0.00 76 1017.9
20260508125526 14 68 0.0 0.0 0.00 0.23 0.00 78 1017.7
20260508125021 13 26 0.0 0.0 0.00 0.23 0.00 79 1017.8
20260508124517 13 29 0.0 0.0 0.00 0.23 0.00 79 1017.7
20260508124013 13 25 0.0 0.0 0.00 0.23 0.00 80 1017.8
20260508123530 13 29 0.0 0.0 0.00 0.23 0.00 81 1017.8
20260508123027 13 33 0.0 0.0 0.00 0.23 0.00 81 1017.9
20260508122523 12 33 0.0 0.0 0.00 0.23 0.00 81 1017.7
20260508122019 12 38 0.0 0.0 0.00 0.23 0.00 82 1017.7
20260508121513 12 34 0.0 1.6 0.00 0.23 0.00 81 1017.6
20260508121029 12 41 0.0 1.6 0.00 0.23 0.00 82 1017.5
20260508120525 12 28 0.0 0.0 0.00 0.23 0.00 82 1017.5
20260508120022 12 360 0.0 0.0 0.00 0.23 0.00 82 1017.5
20260508115522 12 34 0.0 0.0 0.00 0.66 0.00 83 1017.4
20260508115017 11 32 0.0 0.0 0.00 0.66 0.00 84 1017.3
20260508114514 11 29 0.0 0.0 0.00 0.66 0.00 85 1017.2
20260508114030 11 32 0.0 0.0 0.00 0.66 0.00 86 1017.1
20260508113525 11 34 0.0 0.0 0.00 0.66 0.00 87 1017.0
20260508113023 11 30 0.0 0.0 0.00 0.66 0.00 88 1017.0
20260508112518 11 22 0.0 0.0 0.00 0.66 0.00 90 1016.7
20260508112019 10 30 0.0 0.0 0.00 0.66 0.00 90 1016.7
20260508111513 10 25 0.0 0.0 0.00 0.66 0.00 90 1016.6
20260508111030 10 24 0.0 0.0 0.00 0.66 0.00 91 1016.6
20260508110523 10 30 0.0 0.0 0.00 0.66 0.00 91 1016.4
20260508110016 10 27 0.0 0.0 0.00 0.66 0.00 91 1016.4
20260508105512 10 27 0.0 0.0 0.00 0.79 0.00 91 1016.3
20260508105028 10 24 0.0 0.0 0.00 0.79 0.00 91 1016.3
20260508104525 10 24 0.0 0.0 0.00 0.79 0.00 91 1016.3
20260508104026 10 24 0.0 0.0 0.00 0.79 0.00 91 1016.2
20260508103523 10 24 0.0 0.0 0.00 0.79 0.00 91 1016.0
20260508103019 10 24 0.0 0.0 0.00 0.79 0.00 91 1015.9
20260508102514 10 24 0.0 0.0 0.00 0.79 0.00 91 1015.8
20260508102010 10 24 0.0 0.0 0.00 0.79 0.00 91 1015.7
20260508101527 10 24 0.0 0.0 0.00 0.79 0.00 91 1015.6
20260508101022 10 24 0.0 0.0 0.00 0.79 0.00 91 1015.4
20260508100520 10 24 0.0 0.0 0.00 0.79 0.00 91 1015.4
20260508100017 10 24 0.0 0.0 0.00 0.79 0.00 91 1015.4
20260508095513 10 24 0.0 0.0 0.00 0.81 0.00 91 1015.2
20260508095029 10 24 0.0 0.0 0.00 0.81 0.00 91 1015.2
20260508094522 10 24 0.0 0.0 0.00 0.81 0.00 91 1015.1
20260508094018 10 24 0.0 0.0 0.00 0.81 0.00 91 1015.1
20260508093511 10 24 0.0 0.0 0.00 0.81 0.00 91 1015.1
20260508093030 10 24 0.0 0.0 0.00 0.81 0.00 91 1015.2
20260508092526 10 24 0.0 0.0 0.00 0.81 0.00 91 1015.2
20260508092022 10 24 0.0 0.0 0.00 0.81 0.00 91 1015.1
20260508091518 10 24 0.0 0.0 0.00 0.81 0.00 91 1015.1
20260508091011 10 24 0.0 0.0 0.00 0.81 0.00 91 1014.9
20260508090527 10 24 0.0 0.0 0.00 0.81 0.00 91 1014.9
20260508090024 10 24 0.0 0.0 0.00 0.81 0.00 91 1015.0
20260508085523 10 24 0.0 0.0 0.00 1.22 0.00 91 1015.1
20260508085019 10 24 0.0 0.0 0.00 1.22 0.00 91 1015.1
20260508084515 10 24 0.0 0.0 0.00 1.22 0.00 91 1015.0
20260508084011 10 24 0.0 0.0 0.00 1.22 0.00 91 1014.9
20260508083527 10 24 0.0 0.0 0.00 1.22 0.00 90 1014.8
20260508083024 10 24 0.0 0.0 0.00 1.22 0.00 90 1014.7
20260508082519 10 24 0.0 0.0 0.00 1.22 0.00 90 1014.8
20260508082019 10 24 0.0 0.0 0.00 1.22 0.00 90 1014.9
20260508081515 10 24 0.0 0.0 0.00 1.22 0.00 90 1014.7
20260508081011 10 24 0.0 0.0 0.00 1.22 0.00 90 1014.7
20260508080527 10 24 0.0 0.0 0.00 1.22 0.00 90 1014.8
20260508080024 10 24 0.0 0.0 0.00 1.22 0.00 90 1014.8
20260508075519 10 24 0.0 0.0 0.00 1.50 0.00 89 1014.7
20260508075015 10 24 0.0 0.0 0.00 1.50 0.00 89 1014.8
20260508074515 10 24 0.0 0.0 0.00 1.50 0.00 89 1014.7
20260508074032 10 24 0.0 0.0 0.00 1.50 0.00 89 1014.7
20260508073526 10 24 0.0 0.0 0.00 1.50 0.00 89 1014.6
20260508073021 10 24 0.0 0.0 0.00 1.50 0.00 89 1014.6
20260508072516 10 24 0.0 0.0 0.00 1.50 0.00 89 1014.7
20260508072013 10 24 0.0 0.0 0.00 1.50 0.00 89 1014.8
20260508071528 10 24 0.0 0.0 0.00 1.50 0.00 88 1014.7
20260508071025 10 24 0.0 0.0 0.00 1.50 0.00 88 1014.6
20260508070525 11 24 0.0 0.0 0.00 1.50 0.00 88 1014.5
20260508070021 11 24 0.0 0.0 0.00 1.50 0.00 88 1014.4
20260508065516 11 24 0.0 0.0 0.00 2.03 0.00 88 1014.4
20260508065012 11 24 0.0 0.0 0.00 2.03 0.00 87 1014.3
20260508064528 11 24 0.0 0.0 0.00 2.03 0.00 87 1014.4
20260508064024 11 24 0.0 0.0 0.00 2.03 0.00 87 1014.3
20260508063520 11 24 0.0 0.0 0.00 2.03 0.00 87 1014.3
20260508063020 11 24 0.0 0.0 0.00 2.03 0.00 86 1014.3
20260508062516 11 24 0.0 0.0 0.00 2.03 0.00 86 1014.2
20260508062013 11 24 0.0 0.0 0.00 2.03 0.00 86 1014.2
20260508061528 11 24 0.0 0.0 0.00 2.03 0.00 86 1014.2
20260508061024 11 24 0.0 0.0 0.00 2.03 0.00 85 1014.3
20260508060520 11 24 0.0 0.0 0.00 2.03 0.00 85 1014.5
20260508060016 11 24 0.0 0.0 0.00 2.03 0.00 85 1014.4
20260508055516 12 24 0.0 0.0 0.00 3.38 0.00 85 1014.5
20260508055012 12 24 0.0 0.0 0.00 3.38 0.00 85 1014.4
20260508054528 12 24 0.0 0.0 0.00 3.38 0.00 84 1014.4
20260508054024 12 24 0.0 0.0 0.00 3.38 0.00 84 1014.5
20260508053517 12 24 0.0 0.0 0.00 3.38 0.00 83 1014.5
20260508053014 12 24 0.0 0.0 0.00 3.38 0.00 81 1014.4
20260508052529 12 24 0.0 0.0 0.00 3.38 0.00 81 1014.4
20260508052029 12 24 0.0 0.0 0.00 3.38 0.00 81 1014.4
20260508051525 12 24 0.0 0.0 0.00 3.38 0.00 81 1014.5
20260508051021 12 24 0.0 0.0 0.00 3.38 0.00 80 1014.3
20260508050517 13 24 0.0 0.0 0.00 3.38 0.00 80 1014.3
20260508050013 13 24 0.0 0.0 0.00 3.38 0.00 79 1014.2
20260508045529 13 24 0.0 0.0 0.00 3.56 0.00 79 1014.1
20260508045022 13 24 0.0 0.0 0.00 3.56 0.00 78 1014.1
20260508044521 13 24 0.0 0.0 0.00 3.56 0.00 77 1014.1
20260508044017 13 24 0.0 0.0 0.00 3.56 0.00 77 1014.1
20260508043514 13 24 0.0 0.0 0.00 3.56 0.00 77 1014.0
20260508043011 13 24 0.0 0.0 0.00 3.56 0.00 75 1013.9
20260508042526 14 24 0.0 0.0 0.00 3.56 0.00 74 1013.9
20260508042022 14 24 0.0 0.0 0.00 3.56 0.00 73 1013.8
20260508041519 14 24 0.0 0.0 0.00 3.56 0.00 72 1013.8
20260508041019 15 24 0.0 0.0 0.00 3.56 0.00 71 1013.8
20260508040515 15 24 0.0 0.0 0.00 3.56 0.00 71 1013.8
20260508040031 15 24 0.0 0.0 0.00 3.56 0.00 70 1014.0
20260508035526 15 24 0.0 0.0 0.00 3.58 3.56 70 1014.0
20260508035022 15 24 0.0 0.0 0.00 3.58 3.56 69 1014.0
20260508034518 15 24 0.0 0.0 0.00 3.58 3.56 68 1013.9
20260508034014 16 24 0.0 0.0 0.00 3.58 3.56 68 1013.9
20260508033514 16 24 0.0 0.0 0.00 3.58 3.56 67 1013.9
20260508033011 16 24 0.0 0.0 0.00 3.58 3.56 65 1013.8
20260508032527 16 24 0.0 0.0 0.00 3.58 3.56 65 1013.9
20260508032023 16 24 0.0 0.0 0.00 3.58 3.56 65 1013.9
20260508031519 16 24 0.0 0.0 0.00 3.58 3.56 64 1013.8
20260508031014 16 24 0.0 0.0 0.00 3.58 3.56 64 1013.7
20260508030528 16 24 0.0 0.0 0.00 3.58 3.56 64 1013.7
20260508030026 16 30 0.0 0.0 0.00 3.58 3.56 63 1013.7
20260508025526 16 21 0.0 0.0 0.00 3.66 3.56 63 1013.7
20260508025021 16 23 0.0 0.0 0.00 3.66 3.56 63 1013.7
20260508024518 16 24 0.0 0.0 0.00 3.66 3.56 63 1013.5
20260508024013 16 30 0.0 0.0 0.00 3.66 3.56 64 1013.3
20260508023529 16 34 0.0 0.0 0.00 3.66 3.56 63 1013.4
20260508023026 16 15 0.0 0.0 0.00 3.66 3.56 66 1013.2
20260508022521 16 34 0.0 0.0 0.00 3.66 3.56 67 1013.2